Regional Weather Roundup
Issued by NWS

Home | Current Version | Previous Version | Graphics & Text | Print | Product List | Glossary On
Versions: 1 2 3 4 5 6 7 8 9 10 11 12 13 14 15 16 17 18 19 20 21 22 23 24 25 26 27 28 29 30 31 32 33 34 35 36 37 38 39 40 41 42 43 44 45 46 47 48 49 50
000
ASUS45 KSLC 021110
RWRUT

UTAH REGIONAL WEATHER ROUNDUP
NATIONAL WEATHER SERVICE SALT LAKE CITY UT
500 AM MDT TUE SEP 02 2014

UTZ001>011-023>025-021200-

NORTHERN UTAH

CITY           SKY/WX    TMP DP  RH WIND       PRES   REMARKS
HILL AFB       CLEAR     55  35  45 E22       30.04S
LOGAN          CLEAR     48  43  82 CALM      30.07S
OGDEN          CLEAR     56  34  43 SW7       30.02S
PROVO AIRPORT  CLEAR     55  39  54 S3        30.06S
SALT LAKE CITY CLEAR     57  41  55 SE7       30.01S
VERNAL         CLEAR     51  38  60 W8        30.11S
WENDOVER       CLEAR     61  36  39 W3        30.01F
HEBER CITY     CLEAR     41  36  81 CALM      30.15S
WEST JORDAN    CLEAR     57  45  62 CALM      30.04F

$$

UTZ012>022-026-027-021200-

SOUTHERN UTAH

CITY           SKY/WX    TMP DP  RH WIND       PRES   REMARKS
BRYCE CANYON   CLEAR     43  35  73 W8        30.27S
CEDAR CITY     CLEAR     54  37  52 NE5       30.10R
MILFORD        CLEAR     53  34  48 SW6       30.06R
MOAB/CYNLANDS  CLEAR     64  33  31 CALM      30.02S
PRICE          CLEAR     53  34  48 N7        30.13R
ST GEORGE      SUNNY     73  41  31 SW3       29.94R

$$

REGIONAL REPORTS     COLORADO/ARIZONA

CITY           SKY/WX    TMP DP  RH WIND       PRES   REMARKS
CRAIG, CO      CLEAR     39  35  86 CALM      30.19F
GRAND JUNCTION CLEAR     56  40  55 SE10      30.08R
RIFLE          CLEAR     48  39  71 CALM      30.15S
MONTROSE       CLEAR     52  39  61 S7        30.16S
CORTEZ         CLEAR     48  38  68 NE6       30.15S
PAGE, AZ       CLEAR     72  39  30 CALM      30.01R
GRAND CANYON     N/A    N/A N/A N/A MISG        N/A
KINGMAN        CLEAR     72  39  30 S6        29.96R
FLAGSTAFF      CLEAR     49  40  71 CALM      30.26R

$$

REGIONAL REPORTS    NEVADA/IDAHO/WYOMING

CITY           SKY/WX    TMP DP  RH WIND       PRES   REMARKS
LAS VEGAS, NV  CLEAR     81  35  19 S8        29.79R
ELY            CLEAR     46  33  60 S9        30.14S
ELKO           CLEAR     50  30  46 NE3       30.07R
POCATELLO, ID  CLEAR     49  39  68 E6        30.05S
BURLEY         CLEAR     48  41  76 S5        30.02F
EVANSTON, WY   CLEAR     45  28  51 SE7       30.19F
ROCK SPRINGS   CLEAR     45  32  60 W6        30.18F

$$



USA.gov is the U.S. government's official web portal to all federal, state and local government web resources and services.